PUA1502 SABE-SUMU

Flight info

Callsign PUA1502
Flight time 0h 27m
Altitude 17000
Route DORVO8 DORVO A305 TOKAM
Aircraft A320/M-SDE3FGHIRWY/LB1

Departure

Time 2026-04-22 13:44
Airport Aeroparque Jorge Newbery (SABE)

Arrival

Time 2026-04-22 14:11
Airport Carrasco General Cesáreo L. Berisso International Airport (SUMU)
Time Latitude Longitude Altitude Speed Heading
2026-04-22 13:20 -34.55818 -58.41210 26 ft 0 kts 39°
2026-04-22 13:33 -34.55830 -58.41222 30 ft 4 kts 27°
2026-04-22 13:34 -34.55855 -58.41230 29 ft 4 kts 343°
2026-04-22 13:34 -34.55871 -58.41217 28 ft 1 kts 306°
2026-04-22 13:34 -34.55873 -58.41214 29 ft 1 kts 306°
2026-04-22 13:37 -34.55864 -58.41229 29 ft 5 kts 306°
2026-04-22 13:37 -34.55868 -58.41273 30 ft 7 kts 234°
2026-04-22 13:38 -34.55920 -58.41294 27 ft 10 kts 159°
2026-04-22 13:38 -34.56032 -58.41128 28 ft 16 kts 127°
2026-04-22 13:38 -34.56106 -58.41011 26 ft 19 kts 128°
2026-04-22 13:39 -34.56174 -58.40863 29 ft 20 kts 121°
2026-04-22 13:39 -34.56255 -58.40746 28 ft 0 kts 148°
2026-04-22 13:42 -34.56266 -58.40740 25 ft 4 kts 155°
2026-04-22 13:42 -34.56298 -58.40716 27 ft 7 kts 145°
2026-04-22 13:43 -34.56346 -58.40673 28 ft 10 kts 144°
2026-04-22 13:43 -34.56405 -58.40701 25 ft 11 kts 266°
2026-04-22 13:43 -34.56327 -58.40860 26 ft 52 kts 303°
2026-04-22 13:43 -34.55991 -58.41459 28 ft 118 kts 304°
2026-04-22 13:44 -34.55438 -58.42458 121 ft 160 kts 303°
2026-04-22 13:44 -34.54824 -58.43573 888 ft 158 kts 301°
2026-04-22 13:44 -34.53989 -58.44485 1605 ft 176 kts 327°
2026-04-22 13:44 -34.52679 -58.44695 1998 ft 211 kts 10°
2026-04-22 13:45 -34.51292 -58.43852 2358 ft 234 kts 32°
2026-04-22 13:45 -34.50128 -58.42432 2871 ft 247 kts 66°
2026-04-22 13:45 -34.49871 -58.40379 3418 ft 255 kts 104°
2026-04-22 13:45 -34.50290 -58.38269 4134 ft 261 kts 110°
2026-04-22 13:46 -34.50812 -58.36118 4909 ft 270 kts 111°
2026-04-22 13:46 -34.51368 -58.33906 5657 ft 279 kts 110°
2026-04-22 13:46 -34.51933 -58.31627 6406 ft 285 kts 109°
2026-04-22 13:46 -34.52496 -58.29295 7134 ft 292 kts 109°
2026-04-22 13:47 -34.53062 -58.26913 7867 ft 296 kts 108°
2026-04-22 13:47 -34.53631 -58.24492 8614 ft 301 kts 108°
2026-04-22 13:47 -34.54216 -58.22043 9384 ft 304 kts 109°
2026-04-22 13:47 -34.54821 -58.19599 10138 ft 308 kts 110°
2026-04-22 13:48 -34.55454 -58.17090 10850 ft 315 kts 110°
2026-04-22 13:48 -34.56107 -58.14524 11580 ft 323 kts 110°
2026-04-22 13:48 -34.56774 -58.11891 12323 ft 330 kts 110°
2026-04-22 13:48 -34.57449 -58.09209 13091 ft 336 kts 110°
2026-04-22 13:49 -34.58133 -58.06474 13864 ft 341 kts 109°
2026-04-22 13:49 -34.58825 -58.03699 14569 ft 346 kts 109°
2026-04-22 13:49 -34.59523 -58.00887 15284 ft 350 kts 109°
2026-04-22 13:49 -34.60228 -57.98043 16007 ft 353 kts 109°
2026-04-22 13:50 -34.60940 -57.95173 16735 ft 358 kts 109°
2026-04-22 13:50 -34.61676 -57.92213 17031 ft 377 kts 109°
2026-04-22 13:50 -34.62457 -57.89077 17109 ft 397 kts 108°
2026-04-22 13:50 -34.63268 -57.85791 17120 ft 412 kts 108°
2026-04-22 13:51 -34.64091 -57.82433 17115 ft 416 kts 108°
2026-04-22 13:51 -34.64917 -57.79062 17117 ft 417 kts 108°
2026-04-22 13:51 -34.65745 -57.75683 17114 ft 417 kts 108°
2026-04-22 13:51 -34.66574 -57.72303 17117 ft 417 kts 108°
2026-04-22 13:52 -34.67404 -57.68925 17121 ft 417 kts 108°
2026-04-22 13:52 -34.68232 -57.65551 17111 ft 417 kts 108°
2026-04-22 13:52 -34.69018 -57.62332 17116 ft 417 kts 108°
2026-04-22 13:52 -34.69829 -57.58997 17112 ft 417 kts 108°
2026-04-22 13:53 -34.70653 -57.55619 17119 ft 418 kts 108°
2026-04-22 13:53 -34.71442 -57.52220 17118 ft 418 kts 104°
2026-04-22 13:53 -34.71873 -57.48722 17124 ft 419 kts 96°
2026-04-22 13:53 -34.72166 -57.45191 17125 ft 420 kts 96°
2026-04-22 13:54 -34.72460 -57.41666 17127 ft 420 kts 96°
2026-04-22 13:54 -34.72756 -57.38134 17131 ft 420 kts 96°
2026-04-22 13:54 -34.73052 -57.34606 17128 ft 420 kts 96°
2026-04-22 13:54 -34.73347 -57.31069 17135 ft 420 kts 96°
2026-04-22 13:55 -34.73643 -57.27535 17134 ft 420 kts 96°
2026-04-22 13:55 -34.73937 -57.24003 17135 ft 420 kts 96°
2026-04-22 13:55 -34.74228 -57.20471 17128 ft 420 kts 96°
2026-04-22 13:55 -34.74518 -57.16931 17127 ft 420 kts 96°
2026-04-22 13:56 -34.74803 -57.13402 17131 ft 420 kts 96°
2026-04-22 13:56 -34.75088 -57.09866 17127 ft 420 kts 96°
2026-04-22 13:56 -34.75371 -57.06330 17128 ft 420 kts 96°
2026-04-22 13:56 -34.75656 -57.02799 17128 ft 420 kts 96°
2026-04-22 13:57 -34.75943 -56.99266 17128 ft 420 kts 96°
2026-04-22 13:57 -34.76228 -56.95736 17124 ft 420 kts 96°
2026-04-22 13:57 -34.76512 -56.92204 17126 ft 420 kts 96°
2026-04-22 13:57 -34.76791 -56.88715 17124 ft 420 kts 96°
2026-04-22 13:58 -34.77074 -56.85132 16974 ft 420 kts 96°
2026-04-22 13:58 -34.77346 -56.81672 16671 ft 410 kts 96°
2026-04-22 13:58 -34.77605 -56.78380 16557 ft 395 kts 96°
2026-04-22 13:58 -34.77858 -56.75157 16425 ft 382 kts 96°
2026-04-22 13:59 -34.77988 -56.71982 16304 ft 370 kts 88°
2026-04-22 13:59 -34.77710 -56.68919 16175 ft 359 kts 77°
2026-04-22 13:59 -34.77218 -56.65979 16010 ft 352 kts 77°
2026-04-22 13:59 -34.76729 -56.63057 15586 ft 354 kts 77°
2026-04-22 14:00 -34.76244 -56.60139 15343 ft 349 kts 77°
2026-04-22 14:00 -34.75770 -56.57270 15097 ft 345 kts 78°
2026-04-22 14:00 -34.75354 -56.54755 14847 ft 343 kts 78°
2026-04-22 14:00 -34.74884 -56.51924 14550 ft 341 kts 78°
2026-04-22 14:01 -34.74413 -56.49107 14260 ft 339 kts 78°
2026-04-22 14:01 -34.73952 -56.46349 13971 ft 337 kts 78°
2026-04-22 14:01 -34.73486 -56.43560 13651 ft 336 kts 78°
2026-04-22 14:01 -34.73027 -56.40819 13335 ft 334 kts 78°
2026-04-22 14:02 -34.72566 -56.38059 13018 ft 333 kts 78°
2026-04-22 14:02 -34.72105 -56.35313 12701 ft 331 kts 78°
2026-04-22 14:02 -34.71644 -56.32576 12384 ft 330 kts 78°
2026-04-22 14:02 -34.71184 -56.29854 12075 ft 328 kts 77°
2026-04-22 14:03 -34.70726 -56.27153 11839 ft 324 kts 77°
2026-04-22 14:03 -34.70274 -56.24482 11590 ft 321 kts 77°
2026-04-22 14:03 -34.69829 -56.21842 11339 ft 316 kts 77°
2026-04-22 14:03 -34.69395 -56.19269 11057 ft 306 kts 77°
2026-04-22 14:04 -34.68969 -56.16757 10684 ft 304 kts 77°
2026-04-22 14:04 -34.68537 -56.14225 10216 ft 308 kts 77°
2026-04-22 14:04 -34.68103 -56.11669 9724 ft 311 kts 77°
2026-04-22 14:04 -34.67672 -56.09122 9216 ft 313 kts 77°
2026-04-22 14:05 -34.67233 -56.06542 8706 ft 311 kts 77°
2026-04-22 14:05 -34.66797 -56.03984 8206 ft 307 kts 77°
2026-04-22 14:05 -34.65937 -55.98963 7242 ft 300 kts 77°
2026-04-22 14:06 -34.65523 -55.96541 7032 ft 285 kts 77°
2026-04-22 14:06 -34.65368 -55.94199 6845 ft 277 kts 98°
2026-04-22 14:06 -34.65909 -55.92014 6532 ft 267 kts 122°
2026-04-22 14:06 -34.67026 -55.90280 6040 ft 257 kts 146°
2026-04-22 14:07 -34.68441 -55.88994 5546 ft 253 kts 150°
2026-04-22 14:07 -34.69861 -55.87734 5055 ft 252 kts 149°
2026-04-22 14:07 -34.71306 -55.86575 4552 ft 245 kts 165°
2026-04-22 14:07 -34.72905 -55.86391 4046 ft 224 kts 201°
2026-04-22 14:08 -34.74188 -55.87284 3558 ft 209 kts 232°
2026-04-22 14:08 -34.75059 -55.88671 3060 ft 206 kts 236°
2026-04-22 14:08 -34.75908 -55.90072 2546 ft 206 kts 237°
2026-04-22 14:08 -34.76754 -55.91465 2102 ft 203 kts 237°
2026-04-22 14:09 -34.77556 -55.92780 1931 ft 187 kts 237°
2026-04-22 14:09 -34.78310 -55.94009 1851 ft 173 kts 236°
2026-04-22 14:09 -34.79008 -55.95150 1721 ft 165 kts 237°
2026-04-22 14:09 -34.79653 -55.96200 1498 ft 142 kts 237°
2026-04-22 14:10 -34.80221 -55.97124 1119 ft 133 kts 238°
2026-04-22 14:10 -34.80756 -55.98015 694 ft 127 kts 238°
2026-04-22 14:10 -34.81309 -55.98845 561 ft 124 kts 239°
2026-04-22 14:10 -34.81797 -55.99704 417 ft 124 kts 240°
2026-04-22 14:11 -34.82305 -56.00555 249 ft 125 kts 237°
2026-04-22 14:11 -34.82822 -56.01405 98 ft 124 kts 237°
2026-04-22 14:11 -34.83257 -56.02130 84 ft 77 kts 233°
2026-04-22 14:11 -34.83435 -56.02425 83 ft 31 kts 235°
2026-04-22 14:12 -34.83559 -56.02631 84 ft 30 kts 233°
2026-04-22 14:12 -34.83681 -56.02821 83 ft 25 kts 230°
2026-04-22 14:12 -34.83774 -56.02850 85 ft 13 kts 179°
2026-04-22 14:12 -34.83872 -56.02844 87 ft 16 kts 171°
2026-04-22 14:13 -34.83971 -56.02779 82 ft 17 kts 113°
2026-04-22 14:13 -34.83948 -56.02627 84 ft 20 kts 80°
2026-04-22 14:13 -34.83947 -56.02447 82 ft 23 kts 93°
2026-04-22 14:13 -34.83932 -56.02269 87 ft 15 kts 48°
2026-04-22 14:14 -34.83823 -56.02241 84 ft 18 kts
2026-04-22 14:14 -34.83725 -56.02144 86 ft 19 kts 51°
2026-04-22 14:14 -34.83651 -56.02022 85 ft 16 kts 53°
2026-04-22 14:14 -34.83608 -56.01943 83 ft 9 kts 77°
2026-04-22 14:15 -34.83653 -56.01886 84 ft 6 kts 143°
2026-04-22 14:15 -34.83669 -56.01871 84 ft 0 kts 143°